EW6338 Weather Reports


time (UTC)temp
C
wind
direction
speed
KPH
gust
KPH
rain 1hr
cm
rain 24hr
cm
rain mn
cm
humidity
%
barometer
mb
20191015211757 12 162 0.0 0.0 0.00 0.00 0.00 59 1016.8
20191015210137 13 162 0.0 1.6 0.00 0.00 0.00 57 1016.9
20191015204736 13 205 0.0 1.6 0.00 0.00 0.00 55 1017.1
20191015203208 15 303 0.0 1.6 0.00 0.00 0.00 53 1017.2
20191015201707 16 37 0.0 0.0 0.00 0.00 0.00 45 1017.2
20191015200210 16 36 0.0 0.0 0.00 0.00 0.00 45 1017.3
20191015194706 15 210 0.0 1.6 0.00 0.00 0.00 47 1017.4
20191015193208 15 254 0.0 4.8 0.00 0.00 0.00 43 1017.5
20191015191751 15 253 0.0 3.2 0.00 0.00 0.00 45 1017.5
20191015190225 16 266 0.0 3.2 0.00 0.00 0.00 44 1017.6
20191015184648 15 245 0.0 3.2 0.00 0.00 0.00 45 1017.7
20191015183203 15 356 0.0 4.8 0.00 0.00 0.00 46 1017.9
20191015181658 15 208 0.0 4.8 0.00 0.00 0.00 45 1018.1
20191015180212 15 248 0.0 4.8 0.00 0.00 0.00 43 1018.1
20191015174621 15 349 0.0 3.2 0.00 0.00 0.00 46 1018.3
20191015173143 15 257 0.0 4.8 0.00 0.00 0.00 40 1018.4
20191015171736 15 295 0.0 4.8 0.00 0.00 0.00 46 1018.5
20191015170136 15 314 0.0 8.0 0.00 0.00 0.00 45 1018.7
20191015164639 15 330 0.0 1.6 0.00 0.00 0.00 44 1018.7
20191015163131 15 19 0.0 4.8 0.00 0.00 0.00 40 1018.8
20191015161617 16 236 0.0 3.2 0.00 0.00 0.00 46 1018.9
20191015160120 15 51 0.0 4.8 0.00 0.00 0.00 49 1019.0
20191015154609 14 273 0.0 6.4 0.00 0.00 0.00 47 1019.1
20191015153123 14 321 0.0 4.8 0.00 0.00 0.00 49 1019.1
20191015151548 14 350 0.0 4.8 0.00 0.00 0.00 53 1019.3
20191015150046 14 29 1.6 11.3 0.00 0.00 0.00 51 1019.3
20191015144557 13 354 0.0 3.2 0.00 0.00 0.00 57 1019.3
20191015143056 13 29 0.0 3.2 0.00 0.00 0.00 60 1019.4
20191015141545 13 18 0.0 1.6 0.00 0.00 0.00 60 1019.3
20191015140051 12 224 0.0 1.6 0.00 0.00 0.00 65 1019.5
20191015134523 11 56 0.0 1.6 0.00 0.00 0.00 68 1019.5
20191015133052 11 260 0.0 4.8 0.00 0.00 0.00 70 1019.5
20191015131518 10 4 0.0 4.8 0.00 0.00 0.00 74 1019.4
20191015130052 8 44 0.0 1.6 0.00 0.00 0.00 81 1019.4
20191015124526 7 267 0.0 0.0 0.00 0.00 0.00 83 1019.2
20191015123013 7 265 0.0 0.0 0.00 0.00 0.00 82 1019.1
20191015121530 7 299 0.0 0.0 0.00 0.00 0.00 82 1019.0
20191015120037 6 299 0.0 0.0 0.00 0.00 0.00 83 1018.9
20191015114554 6 299 0.0 0.0 0.00 0.00 0.00 82 1018.8
20191015113005 6 299 0.0 0.0 0.00 0.00 0.00 83 1018.4
20191015111504 6 309 0.0 0.0 0.00 0.00 0.00 83 1018.2
20191015110250 7 310 0.0 0.0 0.00 0.00 0.00 82 1018.2
20191015104643 7 310 0.0 0.0 0.00 0.00 0.00 81 1018.1
20191015103214 7 310 0.0 1.6 0.00 0.00 0.00 82 1018.0
20191015101615 7 315 0.0 1.6 0.00 0.00 0.00 82 1017.7
20191015100209 7 278 0.0 0.0 0.00 0.00 0.00 84 1017.6
20191015094717 7 304 0.0 0.0 0.00 0.00 0.00 85 1017.4
20191015093151 7 276 0.0 0.0 0.00 0.00 0.00 86 1017.2
20191015091645 8 277 0.0 0.0 0.00 0.00 0.00 88 1017.0
20191015090208 8 276 0.0 0.0 0.00 0.00 0.00 90 1016.8
20191015084605 8 276 0.0 0.0 0.00 0.00 0.00 91 1016.7
20191015083103 8 276 0.0 0.0 0.00 0.00 0.00 90 1016.4
20191015081701 8 276 0.0 0.0 0.00 0.00 0.00 90 1016.1
20191015080159 10 276 0.0 0.0 0.00 0.00 0.00 89 1016.1
20191015074615 10 276 0.0 0.0 0.00 0.00 0.00 89 1015.9
20191015073034 10 276 0.0 0.0 0.00 0.00 0.00 90 1015.8
20191015071607 10 276 0.0 0.0 0.00 0.00 0.00 91 1015.7
20191015070106 10 276 0.0 0.0 0.00 0.00 0.00 92 1015.7
20191015064529 10 276 0.0 0.0 0.00 0.00 0.00 94 1015.6
20191015063047 10 276 0.0 0.0 0.00 0.00 0.00 94 1015.6
20191015061529 11 285 0.0 0.0 0.00 0.00 0.00 95 1015.5
20191015060058 11 285 0.0 0.0 0.00 0.00 0.00 95 1015.2
20191015054520 11 285 0.0 0.0 0.00 0.00 0.00 95 1015.2
20191015053023 11 285 0.0 0.0 0.00 0.00 0.00 95 1015.1
20191015051532 11 285 0.0 0.0 0.00 0.00 0.00 95 1015.0
20191015050027 11 285 0.0 0.0 0.00 0.00 0.00 95 1014.8
20191015044536 11 285 0.0 0.0 0.00 0.00 0.00 94 1014.6
20191015043007 11 285 0.0 0.0 0.00 0.00 0.00 94 1014.5
20191015041509 11 285 0.0 0.0 0.00 0.00 0.00 94 1014.5
20191015040008 11 285 0.0 0.0 0.00 0.00 0.00 94 1014.4
20191015034644 12 285 0.0 0.0 0.00 0.00 0.00 94 1014.2
20191015033148 12 285 0.0 0.0 0.00 0.00 0.00 94 1014.0
20191015031743 13 285 0.0 0.0 0.00 0.00 0.00 94 1013.9
20191015030120 13 285 0.0 0.0 0.00 0.00 0.00 94 1013.8
20191015024743 13 285 0.0 1.6 0.00 0.00 0.00 94 1013.7
20191015023214 13 302 0.0 0.0 0.00 0.00 0.00 94 1013.6
20191015021651 13 302 0.0 0.0 0.00 0.00 0.00 94 1013.5
20191015020159 13 314 0.0 0.0 0.00 0.00 0.00 94 1013.4
20191015013210 13 314 0.0 0.0 0.00 0.00 0.00 94 1013.2
20191015011658 13 292 0.0 0.0 0.00 0.00 0.00 93 1013.0
20191015010127 13 292 0.0 0.0 0.00 0.00 0.00 93 1013.0
20191015004736 13 292 0.0 0.0 0.00 0.00 0.00 93 1012.8
20191015003142 13 292 0.0 0.0 0.00 0.00 0.00 93 1012.7
20191015001640 13 298 0.0 0.0 0.00 0.00 0.00 93 1012.5
20191015000419 13 298 0.0 0.0 0.00 0.00 0.00 93 1012.5
20191014234643 13 298 0.0 1.6 0.00 0.00 0.00 93 1012.2
20191014233127 13 314 0.0 3.2 0.00 0.00 0.00 93 1012.2
20191014231645 13 103 0.0 0.0 0.00 0.00 0.00 92 1012.1
20191014230342 12 103 0.0 0.0 0.00 0.00 0.00 92 1012.0
20191014224622 12 105 0.0 1.6 0.00 0.00 0.00 91 1012.0
20191014223437 12 49 0.0 0.0 0.00 0.00 0.00 90 1011.9
20191014221642 13 49 0.0 0.0 0.00 0.00 0.00 90 1011.8
20191014220118 13 49 0.0 0.0 0.00 0.00 0.00 88 1011.6
20191014214634 14 49 0.0 0.0 0.00 0.00 0.00 87 1011.4
20191014213204 15 49 0.0 1.6 0.00 0.00 0.00 86 1011.2